Weather History for KEUL - November, 2013

Change the Weather History Date:

Sunday, November 3, 2013

  Actual Average (KBOI) Record (KBOI)
Temperature  
Mean Temperature 38 °F 45 °F  
Max Temperature 46 °F 55 °F 72 °F (1917)
Min Temperature 30 °F 36 °F 11 °F (1935)
Degree Days  
Heating Degree Days 27 20  
Month to date heating degree days 58  
Since 1 July heating degree days 564  
Cooling Degree Days 0 0  
Month to date cooling degree days 0  
Year to date cooling degree days 942  
Moisture  
Dew Point 21 °F    
Average Humidity 50    
Maximum Humidity 69    
Minimum Humidity 37    
Precipitation  
Precipitation 0.00 in 0.04 in 0.86 in (1938)
Month to date precipitation 0.11  
Year to date precipitation 8.94  
Snow  
Snow 0.00 in 0.10 in T in (2013)
Month to date snowfall 0.1  
Since 1 July snowfall 0.2  
Snow Depth -    
Sea Level Pressure  
Sea Level Pressure 30.01 in    
Wind  
Wind Speed 6 mph (WNW)    
Max Wind Speed 13 mph    
Max Gust Speed 21 mph    
Visibility 10 miles    
Events      
T = Trace of Precipitation, MM = Missing Value Source: NWS Daily Summary

Daily Weather History Graph

Daily Weather History Graph

Search for Another Location

Airport or City:

Trip Planner

Search our weather history database for the weather conditions in past years. The results will help you decide how hot, cold, wet, or windy it might be!

Date:

Astronomy

Nov. 03, 2013 Rise Set
Actual Time 7:25 AM MST 5:34 PM MST
Civil Twilight 6:55 AM MST 6:04 PM MST
Nautical Twilight 6:21 AM MST 6:38 PM MST
Astronomical Twilight 5:47 AM MST 7:11 PM MST
Moon 7:34 AM MST (11/3) 5:51 PM MST (11/3)
Length of Visible Light 11h 09m
Length of Day
10h 08m
New Moon, 0% of the Moon is Illuminated
Nov 3
New Moon
Nov 9
First Quarter
Nov 17
Full
Nov 25
Last Quarter
Dec 2
New

Hourly Weather History & Observations

Time (MST) Temp. Windchill Dew Point Humidity Pressure Visibility Wind Dir Wind Speed Gust Speed Precip Events Conditions
12:15 AM 39.2 °F 33.6 °F 24.8 °F 56% 29.94 in 10.0 mi West 8.1 mph - N/A   Clear
12:35 AM 39.2 °F 37.0 °F 23.0 °F 52% 29.95 in 10.0 mi WSW 3.5 mph - N/A   Clear
12:55 AM 37.4 °F 33.8 °F 21.2 °F 52% 29.95 in 10.0 mi East 4.6 mph - N/A   Clear
1:15 AM 37.4 °F - 23.0 °F 56% 29.96 in 10.0 mi Calm Calm - N/A   Clear
1:35 AM 37.4 °F 32.8 °F 21.2 °F 52% 29.97 in 10.0 mi NW 5.8 mph - N/A   Clear
1:15 AM 37.4 °F 31.4 °F 21.2 °F 52% 29.97 in 10.0 mi NW 8.1 mph - N/A   Clear
1:35 AM 35.6 °F 29.9 °F 21.2 °F 56% 29.98 in 10.0 mi NNW 6.9 mph - N/A   Clear
2:15 AM 35.6 °F 28.0 °F 21.2 °F 56% 29.97 in 10.0 mi WNW 10.4 mph - N/A   Clear
2:35 AM 35.6 °F 27.5 °F 21.2 °F 56% 29.96 in 10.0 mi West 11.5 mph - N/A   Clear
2:55 AM 35.6 °F 27.5 °F 21.2 °F 56% 29.96 in 10.0 mi West 11.5 mph - N/A   Clear
3:15 AM 37.4 °F 31.4 °F 19.4 °F 48% 29.96 in 10.0 mi West 8.1 mph - N/A   Clear
3:55 AM 35.6 °F 32.8 °F 19.4 °F 52% 29.97 in 10.0 mi WNW 3.5 mph - N/A   Clear
4:15 AM 35.6 °F 30.7 °F 19.4 °F 52% 29.97 in 10.0 mi West 5.8 mph - N/A   Clear
4:35 AM 35.6 °F 31.7 °F 19.4 °F 52% 29.97 in 10.0 mi WSW 4.6 mph - N/A   Clear
4:55 AM 35.6 °F 29.9 °F 19.4 °F 52% 29.98 in 10.0 mi WSW 6.9 mph - N/A   Partly Cloudy
5:15 AM 37.4 °F 32.1 °F 19.4 °F 48% 29.98 in 10.0 mi WSW 6.9 mph - N/A   Mostly Cloudy
5:35 AM 35.6 °F 29.9 °F 19.4 °F 52% 29.98 in 10.0 mi SW 6.9 mph - N/A   Overcast
5:55 AM 35.6 °F 29.9 °F 19.4 °F 52% 29.98 in 10.0 mi WSW 6.9 mph - N/A   Scattered Clouds
6:15 AM 37.4 °F 31.4 °F 19.4 °F 48% 29.99 in 10.0 mi WSW 8.1 mph - N/A   Mostly Cloudy
6:35 AM 37.4 °F 33.8 °F 19.4 °F 48% 29.99 in 10.0 mi West 4.6 mph - N/A   Overcast
6:55 AM 37.4 °F 32.8 °F 21.2 °F 52% 29.99 in 10.0 mi West 5.8 mph - N/A   Mostly Cloudy
7:15 AM 37.4 °F 34.9 °F 21.2 °F 52% 30.00 in 10.0 mi West 3.5 mph - N/A   Overcast
7:35 AM 37.4 °F - 21.2 °F 52% 30.00 in 10.0 mi Calm Calm - N/A   Overcast
7:55 AM 37.4 °F 34.9 °F 21.2 °F 52% 30.00 in 10.0 mi WNW 3.5 mph - N/A   Overcast
8:15 AM 37.4 °F - 21.2 °F 52% 30.01 in 10.0 mi Calm Calm - N/A   Overcast
8:35 AM 37.4 °F 34.9 °F 21.2 °F 52% 30.01 in 10.0 mi SSW 3.5 mph - N/A   Overcast
8:55 AM 37.4 °F 33.8 °F 21.2 °F 52% 30.02 in 10.0 mi WSW 4.6 mph - N/A   Scattered Clouds
9:15 AM 39.2 °F 33.0 °F 24.8 °F 56% 30.02 in 10.0 mi West 9.2 mph - N/A   Partly Cloudy
9:35 AM 39.2 °F 34.2 °F 23.0 °F 52% 30.02 in 10.0 mi NW 6.9 mph - N/A   Mostly Cloudy
9:55 AM 39.2 °F 35.0 °F 24.8 °F 56% 30.02 in 10.0 mi WNW 5.8 mph - N/A   Overcast
10:15 AM 39.2 °F 33.0 °F 23.0 °F 52% 30.02 in 10.0 mi WNW 9.2 mph - N/A   Overcast
10:35 AM 41.0 °F 35.8 °F 24.8 °F 53% 30.03 in 10.0 mi NW 8.1 mph - N/A   Overcast
10:55 AM 42.8 °F 38.0 °F 24.8 °F 49% 30.03 in 10.0 mi WNW 8.1 mph - N/A   Mostly Cloudy
11:15 AM 42.8 °F 37.5 °F 24.8 °F 49% 30.04 in 10.0 mi WNW 9.2 mph - N/A   Clear
11:35 AM 44.6 °F 38.8 °F 24.8 °F 46% 30.03 in 10.0 mi NW 11.5 mph - N/A   Clear
11:55 AM 44.6 °F 40.2 °F 24.8 °F 46% 30.03 in 10.0 mi NW 8.1 mph - N/A   Partly Cloudy
12:15 PM 44.6 °F 38.8 °F 24.8 °F 46% 30.03 in 10.0 mi NW 11.5 mph 18.4 mph N/A   Mostly Cloudy
12:35 PM 44.6 °F 39.2 °F 23.0 °F 43% 30.03 in 10.0 mi NNW 10.4 mph - N/A   Scattered Clouds
12:55 PM 44.6 °F 38.4 °F 23.0 °F 43% 30.02 in 10.0 mi NW 12.7 mph 17.3 mph N/A   Mostly Cloudy
1:15 PM 44.6 °F 38.8 °F 21.2 °F 39% 30.02 in 10.0 mi NW 11.5 mph - N/A   Overcast
1:35 PM 44.6 °F 39.7 °F 23.0 °F 43% 30.01 in 10.0 mi NW 9.2 mph - N/A   Overcast
1:55 PM 46.4 °F 40.7 °F 21.2 °F 37% 30.01 in 10.0 mi NW 12.7 mph - N/A   Overcast
2:15 PM 44.6 °F 38.4 °F 24.8 °F 46% 30.01 in 10.0 mi NNW 12.7 mph 19.6 mph N/A   Overcast
2:35 PM 44.6 °F 38.8 °F 21.2 °F 39% 30.02 in 10.0 mi NNW 11.5 mph 20.7 mph N/A   Overcast
2:55 PM 44.6 °F 40.2 °F 21.2 °F 39% 30.02 in 10.0 mi NW 8.1 mph - N/A   Overcast
3:15 PM 44.6 °F 39.2 °F 19.4 °F 37% 30.02 in 10.0 mi NW 10.4 mph - N/A   Overcast
3:35 PM 44.6 °F 39.7 °F 21.2 °F 39% 30.02 in 10.0 mi NW 9.2 mph - N/A   Overcast
3:55 PM 44.6 °F 38.8 °F 21.2 °F 39% 30.02 in 10.0 mi WNW 11.5 mph - N/A   Overcast
4:15 PM 44.6 °F 39.2 °F 21.2 °F 39% 30.02 in 10.0 mi WNW 10.4 mph - N/A   Overcast
4:35 PM 44.6 °F 39.7 °F 21.2 °F 39% 30.02 in 10.0 mi WNW 9.2 mph - N/A   Overcast
4:55 PM 44.6 °F 39.7 °F 21.2 °F 39% 30.02 in 10.0 mi NW 9.2 mph - N/A   Overcast
5:15 PM 42.8 °F 38.6 °F 21.2 °F 42% 30.02 in 10.0 mi NW 6.9 mph - N/A   Overcast
5:35 PM 42.8 °F 40.1 °F 21.2 °F 42% 30.02 in 10.0 mi NNW 4.6 mph - N/A   Overcast
5:55 PM 42.8 °F 40.1 °F 21.2 °F 42% 30.02 in 10.0 mi WNW 4.6 mph - N/A   Scattered Clouds
6:15 PM 41.0 °F - 19.4 °F 42% 30.02 in 10.0 mi Calm Calm - N/A   Clear
6:35 PM 41.0 °F 39.0 °F 19.4 °F 42% 30.02 in 10.0 mi WNW 3.5 mph - N/A   Clear
6:55 PM 37.4 °F - 21.2 °F 52% 30.02 in 10.0 mi Calm Calm - N/A   Clear
7:15 PM 39.2 °F - 21.2 °F 49% 30.02 in 10.0 mi Calm Calm - N/A   Clear
7:35 PM 35.6 °F - 21.2 °F 56% 30.03 in 10.0 mi Calm Calm - N/A   Clear
7:55 PM 33.8 °F 29.6 °F 21.2 °F 60% 30.03 in 10.0 mi SSE 4.6 mph - N/A   Clear
8:15 PM 35.6 °F - 19.4 °F 52% 30.03 in 10.0 mi Calm Calm - N/A   Clear
8:35 PM 33.8 °F - 19.4 °F 56% 30.03 in 10.0 mi Calm Calm - N/A   Clear
8:55 PM 32.0 °F - 19.4 °F 60% 30.03 in 10.0 mi Calm Calm - N/A   Clear
9:15 PM 30.2 °F 25.4 °F 19.4 °F 64% 30.04 in 10.0 mi East 4.6 mph - N/A   Mostly Cloudy
9:35 PM 32.0 °F 27.5 °F 19.4 °F 60% 30.04 in 10.0 mi SSE 4.6 mph - N/A   Overcast
9:55 PM 32.0 °F 28.7 °F 21.2 °F 64% 30.04 in 10.0 mi SSE 3.5 mph - N/A   Overcast
10:15 PM 33.8 °F - 21.2 °F 60% 30.05 in 10.0 mi Calm Calm - N/A   Overcast
10:35 PM 32.0 °F 26.4 °F 23.0 °F 69% 30.05 in 10.0 mi ENE 5.8 mph - N/A   Overcast
10:55 PM 32.0 °F 28.7 °F 23.0 °F 69% 30.05 in 10.0 mi East 3.5 mph - N/A   Overcast